Time,TemperatureF,DewpointF,PressureIn,WindDirection,WindDirectionDegrees,WindSpeedMPH,WindSpeedGustMPH,Humidity,HourlyPrecipIn,Conditions,Clouds,dailyrainin,SolarRadiationWatts/m^2,SoftwareType,DateUTC
2013-01-15 00:12:00,7.1,-1.0,30.41,SSE,153,0.0,0.0,69,0.00,,,0.00,0,weatherlink.com 1.10,2013-01-15 07:12:00,
2013-01-15 00:27:00,3.4,-4.0,30.42,WNW,283,0.0,0.0,71,0.00,,,0.00,0,weatherlink.com 1.10,2013-01-15 07:27:00,
2013-01-15 00:42:00,2.2,-4.0,30.42,WNW,287,0.0,1.0,76,0.00,,,0.00,0,weatherlink.com 1.10,2013-01-15 07:42:00,
2013-01-15 00:57:00,5.4,-2.0,30.42,WNW,287,0.0,0.0,72,0.00,,,0.00,0,weatherlink.com 1.10,2013-01-15 07:57:00,
2013-01-15 01:12:00,5.8,-2.0,30.42,WNW,287,0.0,0.0,70,0.00,,,0.00,0,weatherlink.com 1.10,2013-01-15 08:12:00,
2013-01-15 01:27:00,3.8,-4.0,30.43,WNW,287,0.0,0.0,69,0.00,,,0.00,0,weatherlink.com 1.10,2013-01-15 08:27:00,
2013-01-15 01:42:00,4.4,-3.0,30.43,WNW,287,0.0,0.0,73,0.00,,,0.00,0,weatherlink.com 1.10,2013-01-15 08:42:00,
2013-01-15 01:57:00,4.4,-4.0,30.43,WNW,287,0.0,0.0,69,0.00,,,0.00,0,weatherlink.com 1.10,2013-01-15 08:57:00,
2013-01-15 02:12:00,5.2,-2.0,30.43,WNW,287,0.0,0.0,72,0.00,,,0.00,0,weatherlink.com 1.10,2013-01-15 09:12:00,
2013-01-15 02:27:00,6.3,-2.0,30.43,WNW,287,0.0,0.0,70,0.00,,,0.00,0,weatherlink.com 1.10,2013-01-15 09:27:00,
2013-01-15 02:42:00,5.8,-2.0,30.43,WNW,287,0.0,0.0,69,0.00,,,0.00,0,weatherlink.com 1.10,2013-01-15 09:42:00,
2013-01-15 02:57:00,5.8,-2.0,30.42,WNW,287,0.0,0.0,69,0.00,,,0.00,0,weatherlink.com 1.10,2013-01-15 09:57:00,
2013-01-15 03:12:00,5.2,-5.0,30.42,WNW,287,0.0,0.0,64,0.00,,,0.00,0,weatherlink.com 1.10,2013-01-15 10:12:00,
2013-01-15 03:28:00,0.2,-7.0,30.43,SW,232,0.0,0.0,70,0.00,,,0.00,0,weatherlink.com 1.10,2013-01-15 10:28:00,
2013-01-15 03:43:00,-0.1,-4.0,30.43,SW,232,0.0,0.0,84,0.00,,,0.00,0,weatherlink.com 1.10,2013-01-15 10:43:00,
2013-01-15 03:58:00,4.6,-2.0,30.42,WNW,287,0.0,0.0,73,0.00,,,0.00,0,weatherlink.com 1.10,2013-01-15 10:58:00,
2013-01-15 04:13:00,5.5,-2.0,30.41,WNW,287,0.0,0.0,71,0.00,,,0.00,0,weatherlink.com 1.10,2013-01-15 11:13:00,
2013-01-15 04:28:00,5.2,-3.0,30.42,WNW,287,0.0,0.0,68,0.00,,,0.00,0,weatherlink.com 1.10,2013-01-15 11:28:00,
2013-01-15 04:43:00,4.7,-3.0,30.41,WNW,287,0.0,0.0,70,0.00,,,0.00,0,weatherlink.com 1.10,2013-01-15 11:43:00,
2013-01-15 04:58:00,6.7,-1.0,30.40,WNW,287,0.0,0.0,71,0.00,,,0.00,0,weatherlink.com 1.10,2013-01-15 11:58:00,
2013-01-15 05:13:00,6.6,-2.0,30.40,WNW,287,0.0,0.0,68,0.00,,,0.00,0,weatherlink.com 1.10,2013-01-15 12:13:00,
2013-01-15 05:28:00,6.5,-1.0,30.41,WNW,287,0.0,0.0,71,0.00,,,0.00,0,weatherlink.com 1.10,2013-01-15 12:28:00,
2013-01-15 05:43:00,4.6,-3.0,30.41,WNW,287,0.0,0.0,71,0.00,,,0.00,0,weatherlink.com 1.10,2013-01-15 12:43:00,
2013-01-15 05:58:00,3.1,-3.0,30.42,WNW,287,0.0,0.0,74,0.00,,,0.00,0,weatherlink.com 1.10,2013-01-15 12:58:00,
2013-01-15 06:13:00,1.9,-4.0,30.42,WNW,287,0.0,0.0,77,0.00,,,0.00,0,weatherlink.com 1.10,2013-01-15 13:13:00,
2013-01-15 06:29:00,1.7,-4.0,30.42,WNW,287,0.0,0.0,76,0.00,,,0.00,0,weatherlink.com 1.10,2013-01-15 13:29:00,
2013-01-15 06:44:00,2.2,-3.0,30.42,WNW,287,0.0,0.0,79,0.00,,,0.00,0,weatherlink.com 1.10,2013-01-15 13:44:00,
2013-01-15 06:59:00,6.9,3.0,30.42,WNW,287,0.0,0.0,84,0.00,,,0.00,0,weatherlink.com 1.10,2013-01-15 13:59:00,
2013-01-15 07:14:00,6.3,-1.0,30.43,WNW,287,0.0,0.0,73,0.00,,,0.00,0,weatherlink.com 1.10,2013-01-15 14:14:00,
2013-01-15 07:29:00,4.9,-3.0,30.44,WNW,287,0.0,0.0,71,0.00,,,0.00,7,weatherlink.com 1.10,2013-01-15 14:29:00,
2013-01-15 07:44:00,8.0,3.0,30.44,WNW,287,0.0,0.0,81,0.00,,,0.00,23,weatherlink.com 1.10,2013-01-15 14:44:00,
2013-01-15 07:59:00,9.8,6.0,30.45,West,279,0.0,0.0,83,0.00,,,0.00,33,weatherlink.com 1.10,2013-01-15 14:59:00,
2013-01-15 08:14:00,9.5,0.0,30.45,West,278,0.0,0.0,66,0.00,,,0.00,49,weatherlink.com 1.10,2013-01-15 15:14:00,
2013-01-15 08:29:00,8.2,1.0,30.45,West,279,0.0,0.0,72,0.00,,,0.00,58,weatherlink.com 1.10,2013-01-15 15:29:00,
2013-01-15 08:44:00,9.9,3.0,30.45,NNE,24,1.0,4.0,73,0.00,,,0.00,95,weatherlink.com 1.10,2013-01-15 15:44:00,
2013-01-15 08:59:00,11.9,4.0,30.44,NNE,28,3.0,3.0,70,0.00,,,0.00,171,weatherlink.com 1.10,2013-01-15 15:59:00,
2013-01-15 09:14:00,15.7,4.0,30.45,East,82,0.0,0.0,61,0.00,,,0.00,132,weatherlink.com 1.10,2013-01-15 16:14:00,
2013-01-15 09:29:00,17.6,4.0,30.44,East,83,0.0,2.0,55,0.00,,,0.00,221,weatherlink.com 1.10,2013-01-15 16:29:00,
2013-01-15 09:44:00,16.7,0.0,30.45,ESE,104,3.0,5.0,48,0.00,,,0.00,301,weatherlink.com 1.10,2013-01-15 16:44:00,
2013-01-15 10:00:00,20.0,1.0,30.45,South,186,4.0,5.0,43,0.00,,,0.00,130,weatherlink.com 1.10,2013-01-15 17:00:00,
2013-01-15 10:15:00,18.0,0.0,30.45,SSE,150,2.0,5.0,45,0.00,,,0.00,141,weatherlink.com 1.10,2013-01-15 17:15:00,
2013-01-15 10:30:00,18.3,0.0,30.44,SSE,161,2.0,4.0,45,0.00,,,0.00,158,weatherlink.com 1.10,2013-01-15 17:30:00,
2013-01-15 10:45:00,21.0,4.0,30.43,South,182,3.0,4.0,47,0.00,,,0.00,174,weatherlink.com 1.10,2013-01-15 17:45:00,
2013-01-15 11:00:00,22.3,4.0,30.42,ESE,117,3.0,4.0,46,0.00,,,0.00,174,weatherlink.com 1.10,2013-01-15 18:00:00,
2013-01-15 11:15:00,21.5,1.0,30.41,SE,144,0.0,0.0,41,0.00,,,0.00,188,weatherlink.com 1.10,2013-01-15 18:15:00,
2013-01-15 11:30:00,22.1,1.0,30.39,SE,139,5.0,6.0,40,0.00,,,0.00,192,weatherlink.com 1.10,2013-01-15 18:30:00,
2013-01-15 12:00:00,25.6,1.0,30.39,South,169,3.0,3.0,34,0.00,,,0.00,190,weatherlink.com 1.10,2013-01-15 19:00:00,
2013-01-15 12:15:00,28.9,5.0,30.39,SSW,194,0.0,4.0,36,0.00,,,0.00,199,weatherlink.com 1.10,2013-01-15 19:15:00,
2013-01-15 12:30:00,27.1,2.0,30.38,SSE,158,0.0,4.0,34,0.00,,,0.00,213,weatherlink.com 1.10,2013-01-15 19:30:00,
2013-01-15 12:45:00,27.9,1.0,30.38,SE,140,1.0,4.0,32,0.00,,,0.00,197,weatherlink.com 1.10,2013-01-15 19:45:00,
2013-01-15 13:00:00,27.9,1.0,30.38,SSE,152,0.0,4.0,32,0.00,,,0.00,190,weatherlink.com 1.10,2013-01-15 20:00:00,
2013-01-15 13:16:00,28.4,2.0,30.37,SE,129,5.0,6.0,32,0.00,,,0.00,176,weatherlink.com 1.10,2013-01-15 20:16:00,
2013-01-15 13:31:00,28.9,2.0,30.38,SSE,165,2.0,4.0,31,0.00,,,0.00,227,weatherlink.com 1.10,2013-01-15 20:31:00,
2013-01-15 13:46:00,30.8,3.0,30.37,South,182,4.0,6.0,30,0.00,,,0.00,188,weatherlink.com 1.10,2013-01-15 20:46:00,
2013-01-15 14:01:00,30.2,4.0,30.38,ENE,60,0.0,5.0,33,0.00,,,0.00,158,weatherlink.com 1.10,2013-01-15 21:01:00,
2013-01-15 14:16:00,29.4,3.0,30.38,South,179,3.0,7.0,33,0.00,,,0.00,151,weatherlink.com 1.10,2013-01-15 21:16:00,
2013-01-15 14:31:00,31.1,4.0,30.38,South,175,2.0,5.0,32,0.00,,,0.00,128,weatherlink.com 1.10,2013-01-15 21:31:00,
2013-01-15 14:46:00,30.8,4.0,30.38,South,177,0.0,7.0,32,0.00,,,0.00,102,weatherlink.com 1.10,2013-01-15 21:46:00,
2013-01-15 15:01:00,30.6,3.0,30.38,SSE,152,3.0,8.0,31,0.00,,,0.00,102,weatherlink.com 1.10,2013-01-15 22:01:00,
2013-01-15 15:16:00,30.4,4.0,30.38,SSW,194,3.0,8.0,32,0.00,,,0.00,90,weatherlink.com 1.10,2013-01-15 22:16:00,
2013-01-15 15:31:00,31.2,4.0,30.38,SSE,153,4.0,8.0,31,0.00,,,0.00,93,weatherlink.com 1.10,2013-01-15 22:31:00,
2013-01-15 15:46:00,30.6,4.0,30.38,SE,144,3.0,9.0,32,0.00,,,0.00,62,weatherlink.com 1.10,2013-01-15 22:46:00,
2013-01-15 16:01:00,30.7,5.0,30.37,SE,139,5.0,7.0,33,0.00,,,0.00,44,weatherlink.com 1.10,2013-01-15 23:01:00,
2013-01-15 16:16:00,30.3,5.0,30.38,SE,144,5.0,7.0,34,0.00,,,0.00,30,weatherlink.com 1.10,2013-01-15 23:16:00,
2013-01-15 16:31:00,30.3,4.0,30.38,SSE,161,2.0,7.0,33,0.00,,,0.00,14,weatherlink.com 1.10,2013-01-15 23:31:00,
2013-01-15 16:47:00,30.5,5.0,30.39,ESE,111,0.0,4.0,34,0.00,,,0.00,0,weatherlink.com 1.10,2013-01-15 23:47:00,
2013-01-15 17:17:00,30.5,5.0,30.38,South,170,0.0,3.0,34,0.00,,,0.00,0,weatherlink.com 1.10,2013-01-16 00:17:00,
2013-01-15 17:32:00,30.5,6.0,30.38,South,173,0.0,3.0,35,0.00,,,0.00,0,weatherlink.com 1.10,2013-01-16 00:32:00,
2013-01-15 17:47:00,30.6,7.0,30.38,South,173,0.0,2.0,37,0.00,,,0.00,0,weatherlink.com 1.10,2013-01-16 00:47:00,
2013-01-15 18:02:00,31.5,7.0,30.38,SSE,167,2.0,4.0,35,0.00,,,0.00,0,weatherlink.com 1.10,2013-01-16 01:02:00,
2013-01-15 18:17:00,31.2,6.0,30.39,SSE,167,0.0,0.0,35,0.00,,,0.00,0,weatherlink.com 1.10,2013-01-16 01:17:00,
2013-01-15 18:32:00,31.0,9.0,30.40,SSE,167,0.0,0.0,39,0.00,,,0.00,0,weatherlink.com 1.10,2013-01-16 01:32:00,
2013-01-15 18:47:00,32.6,9.0,30.39,SSE,167,0.0,0.0,37,0.00,,,0.00,0,weatherlink.com 1.10,2013-01-16 01:47:00,
2013-01-15 19:02:00,31.7,8.0,30.39,SSE,167,0.0,0.0,37,0.00,,,0.00,0,weatherlink.com 1.10,2013-01-16 02:02:00,
2013-01-15 19:17:00,32.6,9.0,30.39,SSE,167,0.0,0.0,38,0.00,,,0.00,0,weatherlink.com 1.10,2013-01-16 02:17:00,
2013-01-15 19:32:00,34.2,8.0,30.38,SSE,167,0.0,0.0,34,0.00,,,0.00,0,weatherlink.com 1.10,2013-01-16 02:32:00,
2013-01-15 19:48:00,33.5,8.0,30.38,SSE,167,0.0,0.0,35,0.00,,,0.00,0,weatherlink.com 1.10,2013-01-16 02:48:00,
2013-01-15 20:03:00,31.4,7.0,30.38,SSE,167,0.0,0.0,36,0.00,,,0.00,0,weatherlink.com 1.10,2013-01-16 03:03:00,
2013-01-15 20:18:00,30.8,8.0,30.36,East,79,0.0,0.0,38,0.00,,,0.00,0,weatherlink.com 1.10,2013-01-16 03:18:00,
2013-01-15 20:33:00,29.7,9.0,30.36,ENE,75,1.0,1.0,41,0.00,,,0.00,0,weatherlink.com 1.10,2013-01-16 03:33:00,
2013-01-15 20:48:00,29.3,8.0,30.36,East,97,0.0,5.0,41,0.00,,,0.00,0,weatherlink.com 1.10,2013-01-16 03:48:00,
2013-01-15 21:03:00,29.5,8.0,30.36,NE,43,0.0,3.0,41,0.00,,,0.00,0,weatherlink.com 1.10,2013-01-16 04:03:00,
2013-01-15 21:18:00,30.1,11.0,30.37,North,350,5.0,6.0,46,0.00,,,0.00,0,weatherlink.com 1.10,2013-01-16 04:18:00,
2013-01-15 21:33:00,29.7,9.0,30.37,ENE,74,4.0,4.0,42,0.00,,,0.00,0,weatherlink.com 1.10,2013-01-16 04:33:00,
2013-01-15 21:48:00,30.3,9.0,30.37,ENE,66,0.0,0.0,41,0.00,,,0.00,0,weatherlink.com 1.10,2013-01-16 04:48:00,
2013-01-15 22:03:00,31.0,10.0,30.37,WNW,289,0.0,5.0,41,0.00,,,0.00,0,weatherlink.com 1.10,2013-01-16 05:03:00,
2013-01-15 22:18:00,30.7,9.0,30.39,NNE,28,0.0,3.0,41,0.00,,,0.00,0,weatherlink.com 1.10,2013-01-16 05:18:00,
2013-01-15 22:33:00,32.3,10.0,30.39,WSW,256,5.0,5.0,40,0.00,,,0.00,0,weatherlink.com 1.10,2013-01-16 05:33:00,
2013-01-15 22:49:00,31.3,10.0,30.39,West,281,0.0,4.0,41,0.00,,,0.00,0,weatherlink.com 1.10,2013-01-16 05:49:00,
2013-01-15 23:03:00,31.5,11.0,30.38,West,275,2.0,4.0,43,0.00,,,0.00,0,weatherlink.com 1.10,2013-01-16 06:03:00,
2013-01-15 23:18:00,32.6,12.0,30.38,West,275,0.0,0.0,42,0.00,,,0.00,0,weatherlink.com 1.10,2013-01-16 06:18:00,
2013-01-15 23:33:00,33.3,12.0,30.37,West,275,0.0,0.0,41,0.00,,,0.00,0,weatherlink.com 1.10,2013-01-16 06:33:00,
2013-01-15 23:48:00,31.0,11.0,30.37,West,275,0.0,0.0,44,0.00,,,0.00,0,weatherlink.com 1.10,2013-01-16 06:48:00,